Location: Arrodets-la-Barthe
(43.0306°N, 0.2829°E)
Time: 18:45:13
(UTC+00:00)

CSL-04 Debris - Pass Details

Date: 24 October 2021
Orbit: 827 x 847 km, 98.9° (Epoch: 01 December)

Event Time Altitude Azimuth Distance (km) Brightness Sun altitude
Exits shadow 18:44:14 35° 105° (ESE) 1,322 4.7 -19.3°
Maximum altitude 18:45:41 42° 68° (ENE) 1,170 4.5 -19.6°
Drops below altitude 10° 18:50:45 10° 359° (N) 2,453 6.6 -20.5°
Sets 18:53:14 0° 353° (N) 3,395 7.5 -21.0°
